File timestamp: Thu Aug 25 02:00:00 2016, Internal temp: 21.1334228515625
1472090401, -0.0285709351301193, -0.0215157214552164, 0.0208767093718052, 33624, 32477, 23196, -81.469367980957
1472090402, -0.0235436130315065, -0.0223074220120907, 0.0208985526114702, 33630, 32467, 23194, NaN
1472090403, -0.018747303634882, -0.0227847080677748, 0.0215223822742701, 33627, 32470, 23204, NaN
1472090404, -0.0141489803791046, -0.0223992839455605, 0.0220157951116562, 33628, 32474, 23198, NaN
1472090405, -0.0101973675191402, -0.0223301332443953, 0.0221406780183315, 33638, 32468, 23201, NaN
1472090406, -0.00745684001594782, -0.0224769022315741, 0.0216716378927231, 33621, 32491, 23195, NaN
1472090407, -0.00432257167994976, -0.0222912710160017, 0.0210875701159239, 33625, 32469, 23207, NaN
1472090408, 0.00567414099350572, -0.0227436106652021, 0.0206187702715397, 33619, 32485, 23203, NaN
1472090409, 0.0261610094457865, -0.0233494844287634, 0.0205139797180891, 33635, 32475, 23195, NaN
1472090410, 0.0575429573655128, -0.0227656923234463, 0.0202984344214201, 33631, 32468, 23198, NaN
1472090411, 0.0975614562630653, -0.022231275215745, 0.0208234470337629, 33625, 32467, 23193, NaN
1472090412, 0.145875126123428, -0.0213612485677004, 0.0208807364106178, 33627, 32476, 23190, NaN
1472090413, 0.199389606714249, -0.0210655089467764, 0.0214766040444374, 33617, 32474, 23204, NaN
1472090414, 0.16444006562233, -0.0210706405341625, 0.021399388089776, 33625, 32471, 23209, NaN
1472090415, 0.10835675150156, -0.0205563139170408, 0.022182647138834, 33628, 32470, 23195, NaN
1472090416, 0.060676570981741, -0.0205457434058189, 0.0221680980175734, 33641, 32471, 23203, NaN
1472090417.008, 0.0207139570266008, -0.0201311782002449, 0.0213978085666895, 33625, 32485, 23202, NaN
1472090418.008, -0.0122028458863497, -0.0199271459132433, 0.0213630106300116, 33631, 32470, 23206, NaN
1472090419.008, -0.0387290492653847, -0.0198049694299698, 0.0214119795709848, 33632, 32475, 23203, NaN
1472090419.008, -0.059500478208065, -0.0204601865261793, 0.021913081407547, 33634, 32468, 23192, NaN
1472090420.016, -0.0751307532191277, -0.0201711729168892, 0.0227429773658514, 33625, 32475, 23203, NaN
1472090421.016, -0.0862086787819862, -0.0197585336863995, 0.0224100667983294, 33626, 32478, 23193, NaN
1472090422.016, -0.0932957977056503, -0.0204021912068129, 0.0226000156253576, 33630, 32471, 23206, NaN
1472090423.016, -0.096924252808094, -0.0202323868870735, 0.0219123698771, 33642, 32466, 23187, NaN
1472090423.016, -0.0975950434803963, -0.0199578981846571, 0.0215746983885765, 33624, 32471, 23194, NaN
1472090424.022, -0.0957765206694603, -0.0201402138918638, 0.0218760874122381, 33631, 32470, 23194, NaN
1472090425.022, -0.0919034108519554, -0.0212860517203808, 0.0218017771840096, 33618, 32480, 23214, NaN
1472090426.022, -0.0863761007785797, -0.0216930918395519, 0.0213636923581362, 33617, 32474, 23212, NaN
1472090427.022, -0.079560361802578, -0.0220289435237646, 0.0208192281424999, 33615, 32485, 23202, NaN
1472090427.022, -0.071787416934967, -0.0219405423849821, 0.0206867046654224, 33626, 32476, 23199, NaN
1472090428.026, -0.0633543357253075, -0.0221767798066139, 0.020915687084198, 33641, 32478, 23193, NaN
1472090429.026, -0.0545247718691826, -0.0214099083095789, 0.0212561897933483, 33629, 32475, 23199, NaN
1472090430.026, -0.0455299355089664, -0.0212336126714945, 0.0211861580610275, 33633, 32472, 23197, NaN
1472090431.026, -0.0365698710083961, -0.0208358950912952, 0.0213317330926657, 33639, 32477, 23197, NaN
1472090431.026, -0.0278149098157883, -0.0202971119433641, 0.0203137639909983, 33619, 32482, 23196, NaN
1472090432.028, -0.0194073002785444, -0.0207512248307467, 0.0198933612555265, 33644, 32474, 23190, NaN
1472090433.028, -0.0114630209282041, -0.0199762284755707, 0.0190087910741568, 33632, 32469, 23204, NaN
1472090434.028, -0.00407365337014198, -0.020309817045927, 0.0184664707630873, 33611, 32479, 23206, NaN
1472090435.028, 0.00269162771292031, -0.0211082492023706, 0.0182273536920547, 33619, 32475, 23200, NaN
1472090435.028, 0.00878404174000025, -0.0207000151276588, 0.0184902641922235, 33627, 32473, 23200, NaN
1472090436.03, 0.0141731631010771, -0.020638620480895, 0.0192826725542545, 33620, 32466, 23199, NaN
1472090437.03, 0.0188448969274759, -0.0199017282575369, 0.0193892009556293, 33621, 32466, 23205, NaN
1472090438.03, 0.0227994844317436, -0.0200086459517479, 0.0205615200102329, 33625, 32460, 23208, NaN
1472090439.03, 0.026049567386508, -0.0209565442055464, 0.0207770802080631, 33625, 32470, 23193, NaN
1472090440.03, 0.0285823475569487, -0.0216342639178038, 0.0213692281395197, 33618, 32471, 23209, NaN
1472090441.038, 0.026559304445982, -0.0217135287821293, 0.0207499042153358, 33622, 32481, 23194, NaN
1472090442.038, 0.018978413194418, -0.0215561930090189, 0.0217652656137943, 33637, 32480, 23187, NaN
1472090443.038, 0.0081488499417901, -0.0219551790505648, 0.0217774342745543, 33638, 32472, 23187, NaN
1472090444.038, -0.0032414086163044, -0.0215504411607981, 0.021505456417799, 33629, 32476, 23206, NaN
1472090445.038, -0.0143652018159628, -0.021085973829031, 0.0209970977157354, 33639, 32468, 23197, NaN
1472090446.038, -0.023114662617445, -0.0207681749016047, 0.0204294510185719, 33632, 32472, 23191, NaN
1472090447.038, -0.0285631902515888, -0.0213010255247355, 0.0200887266546488, 33630, 32466, 23194, NaN
1472090448.038, -0.03154182061553, -0.0219545774161816, 0.0194438397884369, 33621, 32471, 23199, NaN
1472090449.038, -0.0326881930232048, -0.0230734832584858, 0.0191628951579332, 33623, 32469, 23186, NaN
1472090450.038, -0.0322965271770954, -0.0227303635329008, 0.0191947855055332, 33629, 32473, 23201, NaN
1472090451.038, -0.030258571729064, -0.0226970892399549, 0.0186274386942387, 33635, 32472, 23212, NaN
1472090452.04, -0.0265821535140276, -0.0231317151337862, 0.0176775921136141, 33628, 32473, 23196, NaN
1472090453.036, -0.0211438331753016, -0.0230249036103487, 0.0179542396217585, 33627, 32469, 23207, NaN
1472090454.036, -0.0139661505818367, -0.0231079179793596, 0.0175732243806124, 33629, 32478, 23194, NaN
1472090455.036, -0.00537388352677226, -0.0232609510421753, 0.01747215539217, 33638, 32478, 23194, NaN
1472090456.036, 0.00397507287561893, -0.0227378029376268, 0.0168987512588501, 33634, 32477, 23194, -84.1475677490234
1472090457.036, 0.0141589129343629, -0.0223765000700951, 0.0163262840360403, 33632, 32494, 23195, NaN
1472090458.036, 0.0245238188654184, -0.0219225604087114, 0.0149844475090504, 33626, 32476, 23190, NaN
1472090459.036, 0.0353206731379032, -0.0225045029073954, 0.0146325044333935, 33640, 32477, 23194, NaN
1472090460.036, 0.0457762517035007, -0.022828096523881, 0.0141491293907166, 33625, 32473, 23211, NaN
1472090461.036, 0.0550427474081516, -0.0228908900171518, 0.0143817197531462, 33622, 32474, 23197, NaN
1472090462.036, 0.0625234469771385, -0.022754592821002, 0.0143877370283008, 33637, 32470, 23205, NaN
1472090463.036, 0.067670114338398, -0.0226601734757423, 0.0140043580904603, 33626, 32463, 23196, NaN
1472090464.036, 0.0715465843677521, -0.0226803794503212, 0.014174047857523, 33637, 32468, 23204, NaN
1472090465.036, 0.0746595114469528, -0.0226991809904575, 0.0148268518969417, 33629, 32473, 23193, NaN
1472090466.036, 0.0774291679263115, -0.0230861343443394, 0.0146444430574775, 33635, 32476, 23201, NaN
1472090467.036, 0.0784333422780037, -0.0227060616016388, 0.0145686967298388, 33627, 32486, 23208, NaN
1472090468.036, 0.0776024013757706, -0.0218916330486536, 0.0146907595917583, 33635, 32477, 23210, NaN
1472090469.036, 0.0761642679572105, -0.0221220999956131, 0.0139261381700635, 33623, 32472, 23214, NaN
1472090470.044, 0.0770916193723679, -0.0213329177349806, 0.0142545960843563, 33620, 32474, 23194, NaN
1472090471.044, 0.0822925791144371, -0.0217976588755846, 0.0132515048608184, 33638, 32467, 23186, NaN
1472090472.044, 0.0917559042572975, -0.0220685228705406, 0.0129308300092816, 33631, 32478, 23201, NaN
1472090473.044, 0.105216301977634, -0.0229178555309772, 0.0133387567475438, 33636, 32482, 23198, NaN
1472090473.044, 0.122611321508884, -0.0230688564479351, 0.0133857168257236, 33621, 32477, 23188, NaN
1472090474.052, 0.141414195299149, -0.0232801679521799, 0.0130214905366302, 33626, 32479, 23199, NaN
1472090475.052, 0.160344988107681, -0.0223304498940706, 0.0136435050517321, 33614, 32475, 23194, NaN
1472090476.052, 0.178781911730766, -0.0224308427423239, 0.0134586412459612, 33629, 32480, 23192, NaN
1472090477.052, 0.194478586316109, -0.023058844730258, 0.0136468280106783, 33635, 32466, 23194, NaN
1472090477.052, 0.148964807391167, -0.022580087184906, 0.0137905674055219, 33628, 32474, 23202, NaN
1472090478.058, 0.0795340985059738, -0.0224699452519417, 0.0130572151392698, 33631, 32472, 23208, NaN
1472090479.058, 0.0206832308322191, -0.0223182868212461, 0.0126705002039671, 33627, 32479, 23196, NaN
1472090480.058, -0.0283853355795145, -0.0220885146409273, 0.0126522472128272, 33614, 32470, 23211, NaN
1472090481.058, -0.0684702843427658, -0.0222715269774199, 0.0125052621588111, 33634, 32472, 23206, NaN
1472090481.058, -0.100365363061428, -0.0225587245076895, 0.0134601257741451, 33628, 32479, 23203, NaN
1472090482.062, -0.124853327870369, -0.0233419481664896, 0.0135496975854039, 33619, 32465, 23207, NaN
1472090483.062, -0.142700240015984, -0.0234802924096584, 0.0137895569205284, 33627, 32474, 23188, NaN
1472090484.062, -0.1546501070261, -0.0235235653817654, 0.0140653811395168, 33624, 32482, 23195, NaN
1472090485.062, -0.161419942975044, -0.0233804266899824, 0.0142633896321058, 33630, 32470, 23201, NaN
1472090485.062, -0.163695558905602, -0.0233766324818134, 0.0147588588297367, 33629, 32477, 23190, NaN
1472090486.064, -0.162127748131752, -0.0229312554001808, 0.015369919128716, 33630, 32477, 23190, NaN
1472090487.064, -0.157329276204109, -0.0231368709355593, 0.0155478371307254, 33638, 32468, 23189, NaN
1472090488.064, -0.149872392416, -0.0232944414019585, 0.015355315990746, 33621, 32473, 23195, NaN
1472090489.064, -0.140287026762962, -0.0233684740960598, 0.0152628356590867, 33626, 32466, 23196, NaN
1472090490.064, -0.129059642553329, -0.0241041127592325, 0.0148087264969945, 33634, 32472, 23190, NaN
1472090491.064, -0.116632588207722, -0.0245138797909021, 0.0146174617111683, 33624, 32480, 23204, NaN
1472090492.064, -0.103404067456722, -0.0238686017692089, 0.0157311055809259, 33624, 32479, 23201, NaN
1472090493.064, -0.0897286012768745, -0.024468682706356, 0.0159456171095371, 33627, 32472, 23193, NaN
1472090494.064, -0.0759179145097733, -0.0244474485516548, 0.0161760970950127, 33638, 32478, 23184, NaN
1472090495.064, -0.062242291867733, -0.0250770803540945, 0.0159039050340652, 33632, 32475, 23194, NaN
1472090496.072, -0.0489322356879711, -0.0253689792007208, 0.0146101135760546, 33628, 32476, 23195, NaN
1472090497.072, -0.0361804366111755, -0.0258414689451456, 0.0150429187342525, 33628, 32475, 23190, NaN
1472090498.072, -0.0241440013051033, -0.0260213483124971, 0.0160128753632307, 33628, 32480, 23199, NaN
1472090499.072, -0.0129468617960811, -0.0262406170368195, 0.0158965326845646, 33625, 32466, 23213, NaN
1472090500.072, -0.00268232892267406, -0.0254360940307379, 0.0154699673876166, 33614, 32476, 23196, NaN
1472090501.072, 0.00658425269648433, -0.0248499028384686, 0.0151059785857797, 33618, 32473, 23198, NaN
1472090502.072, 0.0148128028959036, -0.0243551414459944, 0.0152447260916233, 33633, 32478, 23191, NaN
1472090503.072, 0.0219857916235924, -0.024659113958478, 0.0147381173446774, 33623, 32469, 23203, NaN
1472090504.072, 0.0277217831462622, -0.0245036818087101, 0.0151180699467659, 33622, 32473, 23204, NaN
1472090505.072, 0.0303973704576492, -0.0242326930165291, 0.0154654746875167, 33617, 32477, 23211, NaN
1472090506.072, 0.0308415107429028, -0.0244204234331846, 0.0154845044016838, 33627, 32476, 23208, NaN
1472090507.072, 0.0300312303006649, -0.0248663406819105, 0.0150823807343841, 33641, 32479, 23193, NaN
1472090508.072, 0.0279569271951914, -0.0245870724320412, 0.0153848044574261, 33625, 32481, 23207, NaN
1472090509.072, 0.025131419301033, -0.024612782523036, 0.0149552850052714, 33622, 32466, 23200, NaN
1472090510.072, 0.0227236039936543, -0.025184566155076, 0.0160057730972767, 33637, 32475, 23193, NaN
1472090511.072, 0.020643275231123, -0.0251675769686699, 0.0152042787522078, 33636, 32471, 23204, NaN
1472090512.072, 0.0179680325090885, -0.0246674735099077, 0.0163397770375013, 33615, 32465, 23209, -84.1984558105469
1472090513.072, 0.0156033542007208, -0.024979604408145, 0.0160641483962536, 33629, 32478, 23203, NaN
1472090514.072, 0.0141111314296722, -0.0244503077119589, 0.0168588533997536, 33626, 32480, 23201, NaN
1472090515.072, 0.0135471969842911, -0.0235257558524609, 0.0162710044533014, 33629, 32474, 23193, NaN
1472090516.072, 0.0136887012049556, -0.0243153013288975, 0.016840748488903, 33623, 32476, 23198, NaN
1472090517.072, 0.014361672103405, -0.0245084017515182, 0.0168166235089302, 33636, 32470, 23189, NaN
1472090518.072, 0.0169238802045584, -0.0242330487817526, 0.0171705689281225, 33639, 32467, 23209, NaN
1472090519.072, 0.0180759225040674, -0.0240919552743435, 0.0171679351478815, 33640, 32473, 23200, NaN
1472090520.072, 0.0195619817823172, -0.0239295437932014, 0.0174324233084917, 33625, 32469, 23194, NaN
1472090521.072, 0.0221585724502802, -0.0240253545343876, 0.0176565051078796, 33630, 32477, 23188, NaN
1472090522.072, 0.0255004893988371, -0.0237187072634697, 0.0177978873252869, 33630, 32480, 23200, NaN
1472090523.072, 0.0281302276998758, -0.0235978588461876, 0.0183276161551476, 33627, 32462, 23197, NaN
1472090524.072, 0.0296021662652493, -0.0240352116525173, 0.0184187609702349, 33622, 32472, 23207, NaN
1472090525.082, 0.0310167502611876, -0.0239401813596487, 0.0186708346009254, 33618, 32463, 23199, NaN
1472090526.082, 0.0322478115558624, -0.0245106015354395, 0.0186155159026384, 33622, 32466, 23199, NaN
1472090527.082, 0.0328915156424046, -0.0242462549358606, 0.0184666868299246, 33615, 32474, 23200, NaN
1472090528.082, 0.0331063084304333, -0.0252504851669073, 0.0189493000507355, 33626, 32486, 23201, NaN
1472090528.082, 0.0327872931957245, -0.0245233830064535, 0.0188819579780102, 33632, 32480, 23198, NaN
1472090529.09, 0.0323211215436459, -0.024239307269454, 0.0193364657461643, 33635, 32470, 23183, NaN
1472090530.09, 0.0322503335773945, -0.0233357977122068, 0.0189406983554363, 33621, 32476, 23203, NaN
1472090531.09, 0.0323588252067566, -0.0241270158439875, 0.0196952912956476, 33636, 32479, 23186, NaN
1472090532.09, 0.0320117920637131, -0.0245001539587975, 0.0192585848271847, 33626, 32481, 23210, NaN
1472090532.09, 0.0301365572959185, -0.0250112097710371, 0.0201235581189394, 33620, 32469, 23210, NaN
1472090533.096, 0.028580155223608, -0.025172732770443, 0.0200050920248032, 33632, 32478, 23196, NaN
1472090534.096, 0.0330034308135509, -0.02468666061759, 0.0203940756618977, 33623, 32475, 23193, NaN
1472090535.096, 0.0470020845532417, -0.0250320062041283, 0.0195882841944695, 33632, 32474, 23192, NaN
1472090536.096, 0.0718841999769211, -0.0248025935143232, 0.0201169606298208, 33635, 32482, 23197, NaN
1472090536.096, 0.106912910938263, -0.025267181918025, 0.0200160667300224, 33633, 32471, 23204, NaN
1472090537.1, 0.147844836115837, -0.0253158546984196, 0.0193851049989462, 33627, 32477, 23205, NaN
1472090538.1, 0.10441617667675, -0.0249286387115717, 0.0188427083194256, 33640, 32475, 23197, NaN
1472090539.1, 0.0666451454162598, -0.0251046847552061, 0.0188721362501383, 33621, 32475, 23209, NaN
1472090540.1, 0.0341781973838806, -0.0252093765884638, 0.0190528370440006, 33629, 32463, 23197, NaN
1472090541.1, 0.00665385834872723, -0.0247202701866627, 0.0183290615677834, 33635, 32481, 23200, NaN
1472090542.1, -0.0162943582981825, -0.0239923968911171, 0.0186553727835417, 33634, 32470, 23197, NaN
1472090543.1, -0.0350349545478821, -0.024296872317791, 0.0190489329397678, 33632, 32476, 23198, NaN
1472090544.1, -0.0499354153871536, -0.0236393064260483, 0.0187263432890177, 33623, 32471, 23201, NaN
1472090545.1, -0.0613592155277729, -0.0236931014806032, 0.01871657371521, 33636, 32467, 23195, NaN
1472090546.1, -0.0696629881858826, -0.0233147032558918, 0.0187392272055149, 33620, 32464, 23201, NaN
1472090547.1, -0.0751938670873642, -0.0226575043052435, 0.0189706850796938, 33620, 32476, 23199, NaN
1472090548.1, -0.0782870724797249, -0.0214497745037079, 0.0189443342387676, 33633, 32472, 23188, NaN
1472090549.1, -0.0792637541890144, -0.021618427708745, 0.0189824905246496, 33622, 32467, 23205, NaN
1472090550.1, -0.0784291699528694, -0.021820567548275, 0.0185000877827406, 33626, 32473, 23206, NaN
1472090550.1, -0.0760711431503296, -0.0209102798253298, 0.017667019739747, 33641, 32475, 23201, NaN
1472090551.108, -0.0724587887525558, -0.0203860141336918, 0.0175187774002552, 33629, 32471, 23188, NaN
1472090552.108, -0.067841649055481, -0.020362151786685, 0.0181781388819218, 33630, 32474, 23199, NaN
1472090553.108, -0.0624490231275558, -0.020564679056406, 0.0176764186471701, 33625, 32473, 23198, NaN
1472090554.108, -0.0564896315336227, -0.020086457952857, 0.0182972699403763, 33624, 32473, 23204, NaN
1472090554.108, -0.050151564180851, -0.0202914178371429, 0.0180700309574604, 33618, 32479, 23198, NaN
1472090555.116, -0.0436024218797684, -0.0191480200737715, 0.0185972880572081, 33632, 32471, 23205, NaN
1472090556.116, -0.0369897373020649, -0.0189775656908751, 0.0180025715380907, 33624, 32459, 23211, NaN
1472090557.116, -0.0304415300488472, -0.0189420003443956, 0.0178032536059618, 33632, 32480, 23199, NaN
1472090558.116, -0.024067098274827, -0.0193388555198908, 0.018967043608427, 33630, 32474, 23198, NaN
1472090559.116, -0.0179579071700573, -0.0192898772656918, 0.0193867236375809, 33634, 32470, 23188, NaN
1472090560.116, -0.0121886227279902, -0.0192232765257359, 0.0199860129505396, 33613, 32471, 23206, NaN
1472090561.116, -0.0068182316608727, -0.019399207085371, 0.0201860498636961, 33628, 32473, 23194, NaN
1472090562.116, -0.00189123314339668, -0.0201011672616005, 0.0200220812112093, 33629, 32483, 23203, NaN
1472090563.116, 0.00256111635826528, -0.0202802233397961, 0.0192018449306488, 33619, 32469, 23195, NaN
1472090564.116, 0.00651953788474202, -0.0196615140885115, 0.0188130177557468, 33621, 32475, 23197, NaN
1472090565.116, 0.00997545290738344, -0.0194555092602968, 0.0192275065928698, 33638, 32463, 23189, NaN
1472090566.116, 0.012929717078805, -0.0198715105652809, 0.0191989094018936, 33628, 32479, 23195, NaN
1472090567.116, 0.0153913758695126, -0.0199862252920866, 0.0197800677269697, 33629, 32468, 23195, -81.7305297851562
1472090568.116, 0.0173764657229185, -0.0191503465175629, 0.0204347781836987, 33631, 32473, 23188, NaN
1472090569.116, 0.016850009560585, -0.0196079313755035, 0.0203083604574203, 33620, 32471, 23203, NaN
1472090570.116, 0.0120785646140575, -0.0190720353275537, 0.0204990655183792, 33635, 32471, 23200, NaN
1472090571.116, 0.00460402434691787, -0.0186048336327076, 0.0197290293872356, 33633, 32467, 23204, NaN
1472090572.116, -0.00502042891457677, -0.0190351810306311, 0.0195581987500191, 33617, 32461, 23204, NaN
1472090573.116, -0.015061354264617, -0.0189006142318249, 0.0194288734346628, 33632, 32476, 23195, NaN
1472090574.116, -0.0240876693278551, -0.0184292886406183, 0.0198424849659204, 33617, 32484, 23195, NaN
1472090575.116, -0.0318574197590351, -0.0187697242945433, 0.0199922937899828, 33637, 32486, 23199, NaN
1472090576.116, -0.0373889245092869, -0.0194591917097569, 0.0192728266119957, 33627, 32471, 23194, NaN
1472090577.116, -0.0407532341778278, -0.0192299410700798, 0.0192777290940285, 33624, 32482, 23194, NaN
1472090578.116, -0.0417666807770729, -0.0201271157711744, 0.0191349498927593, 33631, 32478, 23211, NaN
1472090579.124, -0.0405631735920906, -0.020109873265028, 0.0186354871839285, 33628, 32473, 23196, NaN
1472090580.124, -0.0369819067418575, -0.0204777717590332, 0.0182277001440525, 33622, 32473, 23212, NaN
1472090581.124, -0.0314910374581814, -0.0203891582787037, 0.0183001011610031, 33635, 32465, 23197, NaN
1472090582.124, -0.0241365637630224, -0.0219307653605938, 0.0179620236158371, 33630, 32469, 23191, NaN
1472090582.124, -0.0157188549637794, -0.0209321063011885, 0.0188978016376495, 33628, 32469, 23212, NaN
1472090583.132, -0.00675647752359509, -0.0209997892379761, 0.0191809721291065, 33634, 32470, 23195, NaN
1472090584.132, 0.00295406742952764, -0.0205680914223194, 0.0190330930054188, 33642, 32476, 23195, NaN
1472090585.132, 0.0130528667941689, -0.0203082431107759, 0.0190364681184292, 33638, 32472, 23193, NaN
1472090586.132, 0.0238697901368141, -0.0204027034342289, 0.0189691800624132, 33633, 32476, 23193, NaN
1472090586.132, 0.03512067720294, -0.0205617863684893, 0.0188809726387262, 33621, 32478, 23201, NaN
1472090587.138, 0.0452953539788723, -0.0201132409274578, 0.0187624730169773, 33624, 32476, 23192, NaN
1472090588.138, 0.0539692156016827, -0.020032050088048, 0.0185492448508739, 33618, 32473, 23203, NaN
1472090589.138, 0.061197180300951, -0.0195895601063967, 0.0180577337741852, 33621, 32482, 23211, NaN
1472090590.138, 0.0669311806559563, -0.0199237409979105, 0.0177082065492868, 33639, 32473, 23207, NaN
1472090590.138, 0.0714594051241875, -0.0197967402637005, 0.0174802113324404, 33637, 32475, 23201, NaN
1472090591.142, 0.0745650008320808, -0.0193601809442043, 0.017703253775835, 33621, 32473, 23198, NaN
1472090592.142, 0.0765676274895668, -0.0189675185829401, 0.0176519621163607, 33621, 32466, 23206, NaN
1472090593.142, 0.0773443728685379, -0.0183679908514023, 0.0179075226187706, 33628, 32469, 23193, NaN
1472090594.142, 0.0768046155571938, -0.0179669614881277, 0.0178390722721815, 33631, 32471, 23202, NaN
1472090595.142, 0.0750961303710938, -0.0184473041445017, 0.0181923042982817, 33620, 32480, 23202, NaN
1472090596.142, 0.0713726654648781, -0.0182555746287107, 0.0181493423879147, 33622, 32479, 23199, NaN
1472090597.142, 0.0657684579491615, -0.0181907955557108, 0.0176719147711992, 33637, 32475, 23197, NaN
1472090598.142, 0.0593832693994045, -0.0179178826510906, 0.0176436770707369, 33623, 32467, 23195, NaN
1472090599.142, 0.0525366328656673, -0.0179690178483725, 0.0173263009637594, 33622, 32468, 23198, NaN
1472090600.142, 0.0451328828930855, -0.0173063036054373, 0.0179817676544189, 33633, 32474, 23192, NaN
1472090601.142, 0.0376793295145035, -0.0174585301429033, 0.0175318568944931, 33631, 32468, 23197, NaN
1472090602.112, 0.0304171964526176, -0.017308671027422, 0.0165168736129999, 33630, 32480, 23199, NaN
1472090603.112, 0.0213476400822401, -0.0176426116377115, 0.0166576262563467, 33621, 32476, 23206, NaN
1472090604.12, 0.0120312478393316, -0.0181963015347719, 0.016683304682374, 33628, 32463, 23207, NaN
1472090604.12, 0.00336387264542282, -0.0182471442967653, 0.0168788600713015, 33641, 32476, 23197, NaN
1472090605.128, -0.00401108525693417, -0.018298676237464, 0.0166771858930588, 33616, 32475, 23206, NaN
1472090606.128, -0.00978068541735411, -0.0184032116085291, 0.0158324781805277, 33636, 32463, 23198, NaN
1472090607.128, -0.0138193666934967, -0.0188814662396908, 0.0163825135678053, 33627, 32484, 23194, NaN
1472090608.128, -0.0183531530201435, -0.0193776283413172, 0.0162990540266037, 33641, 32471, 23181, NaN
1472090608.128, -0.0224990975111723, -0.0196830984205008, 0.0161164682358503, 33635, 32482, 23191, NaN
1472090609.136, -0.0251019038259983, -0.0199467148631811, 0.0163574460893869, 33622, 32479, 23201, NaN
1472090610.136, -0.0264327619224787, -0.0200752411037683, 0.0163053255528212, 33637, 32464, 23203, NaN
1472090611.136, -0.0276130903512239, -0.0198750458657742, 0.0156703200191259, 33630, 32469, 23198, NaN
1472090612.136, -0.0294317156076431, -0.0202457848936319, 0.0164832975715399, 33629, 32469, 23200, NaN
1472090613.136, -0.0304424427449703, -0.0213302783668041, 0.0165086835622787, 33630, 32470, 23197, NaN
1472090614.136, -0.032205518335104, -0.0212311167269945, 0.0159332174807787, 33631, 32484, 23193, NaN
1472090615.136, -0.0347613319754601, -0.021135501563549, 0.0152157470583916, 33627, 32476, 23189, NaN